Lapse_Rate
4.2 4.7 4.0 5.7 6.4 6.5 6.5 6.5 6.5 6.5 6.5 6.3 6.8 6.6 6.6 6.8 6.5 6.5 4.7 4.8 5.4 4.5 4.4 5.5 6.0 6.4 6.6 6.6 6.4 6.3 6.1 6.3 6.0 5.6 6.0 6.0 5.7 6.1 6.2 6.3 6.3 6.5 6.7 6.7 6.3 6.0 5.9 6.2 6.3
4.0 5.2 4.5 5.3 6.5 6.5 6.5 6.5 6.5 6.5 6.8 6.6 6.9 7.0 6.8 6.5 7.2 5.4 4.8 5.6 5.2 4.7 5.0 5.2 5.9 6.1 6.5 6.6 6.3 6.2 6.2 6.2 6.0 5.8 6.0 5.9 6.1 6.4 6.4 6.5 6.7 6.2 6.1 6.4 6.6 6.2 6.1 6.3 6.3
5.1 5.6 5.5 6.5 6.5 6.5 6.5 6.5 6.5 6.5 7.2 7.0 6.7 7.3 7.2 6.9 6.2 5.5 5.4 5.7 5.5 5.2 5.2 5.3 5.8 6.2 6.2 6.2 6.0 5.9 6.0 6.1 6.0 6.1 6.3 6.2 6.5 6.3 6.1 6.0 5.7 5.8 5.7 5.4 5.5 5.7 6.0 6.1 6.0
5.9 5.2 5.3 6.5 6.5 6.5 6.5 6.5 6.6 6.7 7.1 7.3 7.0 6.5 7.3 7.3 7.1 6.3 6.0 6.0 5.4 5.3 5.6 5.7 5.8 6.0 6.1 6.2 5.8 5.6 5.6 5.9 5.8 5.9 6.0 6.1 6.1 5.8 5.9 5.8 5.5 5.6 5.5 5.1 5.3 5.5 5.8 6.0 6.3
4.9 4.8 6.5 6.5 6.5 6.5 6.5 6.8 6.9 6.5 6.7 7.0 7.1 6.6 6.9 7.8 6.8 5.8 5.9 6.1 4.6 4.8 5.6 5.8 5.9 5.8 6.1 6.2 5.7 5.5 5.5 5.7 5.8 6.1 6.1 6.1 5.7 5.5 5.4 5.2 5.4 5.5 5.3 4.8 5.0 5.5 6.2 6.4 6.5
3.9 5.0 6.5 6.5 6.5 6.5 6.5 7.0 6.9 6.8 7.0 7.2 6.9 6.7 6.4 6.8 6.3 7.0 6.1 5.6 4.7 4.6 5.6 6.3 6.1 5.9 6.2 6.3 5.8 5.4 5.5 5.6 5.6 5.9 5.8 5.8 5.3 5.2 5.2 5.4 5.5 5.2 5.0 4.9 5.2 5.8 6.2 6.2 6.3
6.0 6.5 6.5 6.5 6.5 6.5 6.5 7.1 6.6 6.7 6.8 6.8 7.5 6.5 6.7 7.0 6.9 6.4 6.0 5.2 4.6 5.0 5.4 5.9 6.2 6.4 6.4 6.1 5.7 5.6 5.6 5.4 5.4 5.5 5.7 5.5 5.1 5.1 5.4 5.2 5.1 5.0 4.9 4.8 4.9 5.2 5.5 5.7 5.7
4.9 6.5 6.5 6.5 6.5 6.5 6.6 7.0 7.4 6.9 6.7 8.1 7.8 6.5 6.6 7.3 7.3 6.4 5.6 4.9 4.8 4.7 4.8 4.9 5.6 5.8 5.6 5.7 5.6 5.6 5.1 5.3 5.3 5.1 5.3 5.3 5.0 5.2 5.4 5.1 5.1 5.2 4.9 5.0 5.1 5.3 5.4 5.1 5.1
6.3 6.5 6.5 6.5 6.5 6.5 6.9 6.5 7.4 7.8 7.3 7.6 7.7 7.4 7.1 8.6 7.4 6.1 5.5 5.3 4.8 5.1 4.6 4.7 5.0 5.1 4.9 4.9 5.6 5.1 5.3 5.5 5.7 5.6 5.4 5.1 4.4 4.7 5.0 5.0 5.1 5.3 5.6 5.4 5.3 5.3 5.4 5.7 5.6
6.5 6.5 6.5 6.5 6.4 6.5 6.6 6.8 6.9 6.9 6.9 7.0 7.4 7.6 8.3 8.1 7.0 6.1 5.2 5.2 5.0 4.7 4.7 4.3 4.3 4.3 4.5 5.6 4.7 4.8 5.1 5.4 5.6 5.2 5.2 4.1 3.9 4.1 4.7 5.0 5.2 5.5 5.3 5.5 5.3 5.3 5.1 5.2 4.9
6.7 6.5 6.5 6.5 6.4 6.7 6.5 6.7 7.3 6.6 6.5 6.8 6.8 7.6 7.7 7.5 7.3 5.6 5.1 4.6 4.0 4.3 4.8 3.9 4.1 4.1 4.5 5.1 3.8 4.1 4.6 4.6 5.0 4.5 4.6 4.1 4.0 4.0 4.1 4.4 4.7 4.8 4.4 4.3 4.6 4.3 4.3 4.8 4.8
6.5 6.8 6.7 6.7 6.6 6.9 6.5 6.9 6.7 6.8 6.8 7.6 7.6 6.8 7.3 7.5 6.9 5.9 5.8 5.3 4.8 4.4 4.6 3.9 4.7 3.9 3.9 3.8 3.3 3.7 3.7 4.1 4.1 4.4 4.2 3.5 3.3 3.4 3.8 4.1 4.8 4.6 4.8 4.6 4.3 4.1 3.9 3.4 3.8
6.5 6.5 6.8 6.5 7.1 6.0 6.4 6.2 6.5 6.6 7.5 7.7 7.8 7.4 7.2 7.0 6.6 7.0 5.6 5.4 4.9 4.7 4.7 4.3 4.0 3.8 4.2 3.0 3.9 4.2 3.8 3.9 4.5 4.7 5.1 5.1 4.6 3.3 4.2 4.5 4.8 5.0 4.9 4.5 4.6 4.4 4.5 4.5 4.8
6.0 6.5 6.5 6.1 6.3 6.4 6.2 6.5 6.5 6.9 7.4 7.4 7.3 7.1 6.8 6.8 6.8 7.9 6.5 5.7 5.3 5.5 4.9 5.0 4.9 4.4 4.3 4.3 4.3 4.3 4.6 4.5 4.7 4.9 5.6 6.5 5.6 4.9 4.1 4.2 4.5 4.8 5.5 5.4 4.6 3.9 3.5 3.2 4.2
6.3 6.5 6.5 6.4 6.3 6.3 4.9 6.5 6.5 6.9 7.1 6.8 6.2 6.4 6.3 6.8 6.9 7.2 6.8 6.7 5.8 5.6 5.9 4.7 4.5 4.4 4.8 4.5 4.7 4.8 4.8 5.3 4.7 4.9 6.0 6.3 6.0 5.4 5.0 4.2 3.4 4.5 5.2 5.0 5.4 4.5 3.5 2.3 4.0
6.5 6.5 6.5 6.5 6.4 6.5 5.8 6.5 6.4 6.9 6.7 6.1 6.1 6.5 6.6 5.6 5.5 6.2 6.8 6.4 5.7 5.5 5.3 5.6 6.6 5.3 4.2 3.6 4.4 4.6 4.9 5.0 5.2 5.4 6.0 6.5 6.3 6.1 5.3 3.6 3.1 4.5 4.6 4.9 3.5 3.1 3.2 3.5 3.8
6.5 6.5 6.5 6.5 6.4 6.5 6.5 6.5 6.4 7.0 6.8 6.3 6.3 6.3 6.2 5.0 4.8 4.9 5.8 5.8 5.3 4.9 4.9 5.0 4.5 4.4 4.1 4.0 4.6 4.8 5.1 4.7 5.2 5.1 5.3 6.3 6.8 6.1 4.9 4.3 4.0 4.2 3.9 4.2 3.6 3.8 2.8 2.7 2.8
6.5 6.5 6.5 6.5 6.5 6.5 6.5 6.5 6.5 6.6 6.7 6.5 6.5 6.1 5.8 5.3 5.5 4.2 5.6 5.7 5.2 4.8 5.0 5.1 4.5 3.9 3.4 3.6 4.0 4.1 4.3 5.3 5.1 4.7 4.9 5.4 5.5 5.8 5.0 4.8 4.3 4.0 3.5 3.9 3.4 3.9 2.8 2.9 2.9
6.5 6.5 6.5 6.5 6.5 6.5 6.5 6.5 6.5 6.4 6.4 6.5 6.3 6.2 5.6 5.1 4.9 4.2 5.4 5.1 5.1 5.2 5.2 4.2 4.2 2.8 3.2 3.3 3.5 3.7 4.2 3.9 4.3 4.1 5.1 5.2 5.3 5.1 4.9 4.5 4.1 4.1 3.2 4.6 4.1 3.5 3.3 3.5 2.8
6.5 6.5 6.5 6.5 6.5 6.5 6.5 6.5 6.5 6.4 6.5 6.5 6.5 6.2 6.0 5.3 4.8 4.9 4.7 4.5 5.0 4.8 4.6 3.8 4.1 2.7 3.4 3.2 2.9 3.7 3.9 3.7 4.5 4.2 4.9 5.3 5.3 5.1 4.7 4.7 3.9 3.9 3.2 3.5 3.5 3.8 3.4 3.1 3.2
6.5 6.5 6.5 6.5 6.5 6.5 6.5 6.5 6.5 6.5 6.6 6.7 6.8 5.7 5.8 5.4 5.1 5.2 5.0 4.1 4.3 4.6 3.7 3.4 3.2 3.1 3.0 3.3 3.2 3.6 3.8 3.8 4.0 3.6 3.5 4.4 5.2 5.1 4.8 5.2 4.2 3.4 2.9 3.3 3.3 3.5 3.7 3.9 3.4
6.5 6.5 6.5 6.5 6.5 6.5 6.5 6.5 6.5 6.5 6.5 6.4 5.2 3.6 4.3 5.4 5.6 5.3 5.4 3.9 4.2 4.3 4.5 3.1 3.1 3.1 2.9 3.3 4.1 4.0 4.2 3.4 3.6 3.9 3.7 4.3 4.8 4.8 4.8 4.4 4.6 3.6 3.2 3.2 3.1 3.8 3.0 3.0 3.5
6.5 6.5 6.5 6.5 6.5 6.5 6.5 6.5 6.5 6.5 6.5 6.5 6.2 4.3 3.4 3.0 4.5 4.2 5.0 4.0 3.8 4.7 4.2 3.3 2.8 3.3 4.0 3.7 4.5 4.3 3.8 3.5 3.7 3.8 4.2 4.3 4.6 4.4 5.2 4.5 3.8 3.5 2.9 3.3 3.3 3.5 3.4 3.2 3.3
6.5 6.5 6.5 6.5 6.5 6.5 6.5 6.5 6.5 6.5 6.5 6.5 6.5 6.4 5.1 4.2 4.2 3.2 3.4 4.0 3.1 4.0 4.8 3.7 2.5 2.7 3.4 3.7 3.3 3.7 3.9 4.3 4.7 4.2 3.8 4.3 4.3 4.6 4.0 4.4 3.5 3.3 3.2 3.1 3.3 3.3 3.4 3.1 3.1
6.5 6.5 6.5 6.5 6.5 6.5 6.5 6.5 6.5 6.5 6.5 6.5 6.6 6.2 4.7 3.8 3.7 2.9 3.8 3.8 3.6 3.3 3.7 4.8 4.3 4.0 3.9 4.1 4.1 4.3 3.6 4.4 5.0 4.1 5.0 4.5 5.4 4.3 4.6 3.2 3.0 2.3 2.9 3.2 2.9 2.9 3.2 3.3 3.2
6.5 6.5 6.5 6.5 6.5 6.5 6.5 6.5 6.5 6.5 5.8 4.8 5.8 6.4 4.8 3.6 4.3 5.2 4.5 3.8 3.8 3.0 2.8 3.1 4.6 4.8 4.2 4.1 5.0 4.1 5.0 4.5 4.5 4.5 4.9 4.1 5.2 5.6 5.3 4.1 4.3 3.6 3.0 3.4 2.8 2.5 2.6 3.4 3.4
6.5 6.5 6.5 6.5 6.5 6.5 6.5 6.5 6.5 6.5 6.5 5.8 6.5 6.5 5.6 4.6 3.9 3.8 4.2 3.4 3.6 3.3 4.2 3.4 4.2 4.3 4.5 5.2 4.7 5.4 5.0 5.6 5.3 4.5 4.9 4.7 4.1 5.3 5.0 4.7 4.4 4.1 3.9 3.8 3.8 2.9 2.8 2.9 2.9
6.5 6.5 6.5 6.5 6.5 6.5 6.5 6.5 6.5 6.5 6.5 6.5 6.3 5.7 4.8 5.8 6.1 5.7 4.5 4.3 4.1 5.3 5.2 4.4 4.4 4.5 3.6 3.5 5.1 6.1 6.7 5.7 5.6 5.6 5.0 4.5 4.7 4.8 5.5 4.6 4.7 4.7 4.3 4.1 4.2 4.6 3.0 2.9 3.5
6.5 6.5 6.5 6.5 6.5 6.5 6.5 6.5 6.5 6.5 6.5 6.5 5.9 6.1 5.5 5.5 5.7 4.7 4.4 4.6 4.7 5.0 4.2 3.7 2.9 2.8 2.9 3.8 3.6 4.1 4.8 5.7 5.5 5.8 5.6 4.8 4.9 4.3 5.4 5.0 5.0 4.8 4.4 4.3 4.3 4.7 4.5 3.0 3.8
6.5 6.5 6.5 6.5 6.5 6.5 6.5 6.5 6.5 6.5 6.2 6.2 6.0 5.8 5.1 4.6 3.2 3.3 3.1 2.7 2.6 2.7 2.8 2.6 2.7 2.1 2.0 2.1 2.4 2.9 3.5 6.2 6.5 5.5 5.7 5.4 4.6 4.6 4.7 3.9 4.9 4.8 4.7 4.6 4.6 4.6 5.0 4.0 4.5
Wind_Speed
11 15 9 4 2 4 6 4 10 8 2 2 4 8 11 13 3 7 7 10 12 8 11 15 14 15 14 15 16 17 18 17 18 19 18 18 18 16 15 15 14 13 12 12 13 13 12 11 11
7 6 3 2 3 8 3 14 12 9 11 15 13 8 11 7 9 12 7 11 14 13 11 14 16 15 15 15 15 17 17 18 18 19 17 16 15 15 15 14 13 14 13 11 10 11 10 9 9
3 2 2 2 2 4 7 15 16 13 12 10 6 7 5 7 13 14 11 13 14 12 14 16 17 17 17 16 16 16 17 17 18 17 16 17 15 14 13 12 13 12 11 11 10 9 8 8 7
2 2 3 3 9 7 15 14 21 17 10 11 13 9 6 3 11 9 17 15 12 11 13 17 19 20 19 17 17 17 18 16 17 16 16 16 14 13 12 11 10 10 11 10 9 9 7 7 6
2 2 1 1 3 12 20 20 19 16 8 15 13 10 9 5 15 19 15 14 13 8 13 17 19 20 19 18 19 18 17 16 16 15 14 13 12 11 11 10 9 10 10 10 9 8 7 6 5
4 2 3 5 6 18 16 19 18 18 16 17 18 14 3 16 20 16 16 13 13 11 13 17 22 22 19 18 19 18 17 16 16 13 12 11 11 9 8 8 8 9 9 7 6 5 3 3 3
5 3 1 3 9 13 18 15 16 20 20 10 16 10 9 17 16 16 14 12 12 15 14 14 18 20 19 16 18 17 16 14 14 13 10 10 8 8 6 6 6 6 6 6 4 1 1 0 1
4 2 2 2 9 6 16 12 19 22 10 16 18 7 14 15 18 15 13 11 11 11 11 10 13 16 16 15 15 15 13 13 11 11 10 8 8 7 6 4 4 3 2 1 2 2 3 4 4
2 3 1 5 6 6 18 13 11 12 19 14 2 18 21 21 17 15 12 9 8 9 9 9 10 12 13 16 13 14 12 11 11 11 10 9 8 7 5 5 4 4 3 5 6 7 7 7 5
2 2 4 6 10 9 16 21 13 12 19 13 19 18 23 22 20 16 14 11 10 11 9 7 9 10 10 12 11 11 11 10 10 9 8 7 7 6 6 7 9 6 7 8 12 12 12 10 6
0 4 4 10 10 14 14 20 16 21 16 23 22 26 24 23 21 19 16 16 14 13 9 8 8 11 10 9 10 10 10 9 9 9 10 10 10 11 10 6 6 7 7 11 13 14 12 11 10
4 11 4 9 7 6 10 14 18 18 13 21 20 22 22 22 19 17 17 15 13 13 12 9 11 10 11 11 10 10 8 10 9 11 11 9 8 7 8 7 7 11 11 3 7 7 12 12 8
6 2 9 7 13 12 13 9 11 14 20 18 18 22 19 20 18 17 18 16 15 14 12 12 10 9 9 8 8 9 8 9 11 10 8 11 6 5 9 9 9 7 5 3 4 4 1 3 5
6 8 7 5 8 8 10 6 10 17 19 17 17 18 18 17 16 15 17 17 17 14 15 14 12 10 11 8 10 9 11 13 11 10 9 8 9 6 3 2 4 4 4 4 8 7 6 5 3
8 4 4 1 2 5 7 7 12 19 17 15 10 13 12 14 14 16 17 18 19 16 16 16 13 11 11 9 9 12 13 12 10 10 8 5 7 4 2 2 5 6 5 8 10 9 8 4 4
5 5 2 3 3 1 5 4 13 19 19 15 11 12 10 7 11 11 14 15 18 15 15 15 12 11 8 7 10 9 9 11 11 13 12 8 7 5 1 2 5 11 3 3 4 2 3 2 3
3 1 4 2 7 3 2 6 12 15 18 17 14 13 11 8 7 9 10 16 15 15 13 11 8 8 7 6 7 8 8 9 11 13 13 12 10 6 3 3 8 10 3 3 2 2 1 2 1
6 4 4 6 8 7 4 8 18 16 18 19 17 15 11 10 12 10 14 17 15 14 13 11 8 8 7 4 3 3 3 6 11 12 12 14 13 9 5 5 7 4 3 2 1 2 1 1 2
9 6 7 8 8 6 12 7 19 18 15 17 16 15 13 12 10 9 15 17 15 15 13 9 10 7 5 2 2 1 2 3 3 8 12 14 16 12 9 6 5 3 5 2 3 1 3 3 3
10 3 5 2 5 7 7 11 17 20 21 21 19 16 15 13 14 11 13 17 19 17 13 11 11 8 6 4 3 3 2 3 3 8 12 16 15 14 10 7 4 1 3 5 4 2 2 2 1
5 5 4 5 3 4 3 3 16 17 20 17 17 13 10 15 17 14 13 14 15 16 12 12 11 10 7 6 2 1 2 2 2 2 3 9 16 16 15 13 8 5 3 4 5 3 2 2 2
5 4 3 5 4 3 4 4 8 18 19 18 11 7 1 8 12 7 6 7 14 15 14 12 12 12 8 8 5 5 4 4 3 3 4 7 15 16 16 15 11 7 4 4 5 3 3 2 3
4 2 4 3 3 4 1 2 7 15 11 5 14 13 12 12 11 6 10 9 8 14 13 12 11 12 11 11 10 7 5 4 4 3 5 7 9 15 17 14 11 6 4 5 5 5 4 3 3
2 4 7 6 4 3 4 6 5 9 8 10 14 18 16 13 13 6 10 1 7 7 9 8 11 12 11 12 11 13 11 9 7 6 4 5 6 8 11 12 10 10 5 6 6 6 5 4 4
9 7 4 3 4 6 3 4 5 7 16 20 18 13 15 12 13 15 15 2 4 7 6 5 6 7 8 10 10 12 11 12 13 11 8 7 8 6 10 6 6 5 7 7 6 6 6 5 4
3 6 5 2 1 5 5 5 4 4 11 7 9 12 13 12 12 15 12 6 4 6 7 6 1 6 7 9 12 10 13 9 9 11 9 7 8 10 12 11 10 11 10 10 7 5 5 6 5
3 3 5 4 1 4 3 4 15 13 15 14 15 12 7 6 6 5 2 3 7 6 4 5 3 5 7 8 10 12 12 15 14 14 12 9 8 9 11 12 13 12 10 9 9 6 7 6 6
5 2 4 4 2 4 3 4 7 5 10 16 17 15 9 12 13 10 8 6 7 8 4 1 3 3 6 7 4 9 15 15 16 13 14 13 11 11 11 12 13 13 13 12 11 11 8 8 7
4 4 5 5 3 4 4 3 2 2 1 7 10 11 13 14 12 12 12 10 9 6 4 4 4 5 5 4 6 12 15 18 15 16 16 15 13 11 13 13 15 14 13 13 12 13 12 10 11
4 3 5 5 3 4 6 1 6 9 11 13 14 14 12 10 7 7 8 8 7 6 4 5 4 4 4 4 6 9 14 14 16 17 19 17 15 13 13 12 14 14 15 15 14 15 15 13 13
Wind_Direction
173 186 161 167 190 102 128 85 113 131 84 330 96 115 97 35 105 140 136 148 127 149 168 155 146 130 125 119 110 104 104 105 106 106 106 108 106 105 103 104 106 107 108 104 102 98 102 107 108
181 166 215 154 88 93 53 115 88 119 118 99 70 76 50 71 64 115 113 148 146 149 160 155 147 139 130 125 114 109 109 108 107 106 109 107 107 107 106 105 109 106 109 109 101 106 111 118 112
196 226 118 99 153 108 125 124 123 114 114 102 108 59 67 104 119 144 136 150 147 141 143 151 148 145 138 130 119 111 111 111 112 111 112 110 110 110 112 109 110 116 112 109 108 110 118 123 118
328 11 357 6 94 158 124 129 140 129 97 103 106 68 71 115 137 137 143 150 135 138 146 150 151 147 141 132 125 115 114 117 119 120 117 114 114 116 117 118 120 121 114 107 107 112 129 132 123
5 55 92 244 87 93 122 144 132 124 80 100 116 114 109 104 118 140 149 138 132 131 143 152 150 146 139 135 127 122 121 124 122 121 117 120 123 125 130 126 115 122 111 104 104 117 134 132 118
65 121 56 101 15 106 128 137 122 102 120 115 109 116 88 133 141 143 136 136 131 130 135 144 147 141 135 132 126 129 130 131 124 127 126 132 134 144 142 129 112 104 103 102 98 103 108 98 80
102 64 166 140 121 144 137 131 121 122 127 133 126 109 135 144 142 136 132 132 131 132 127 127 139 144 139 139 135 134 133 131 134 130 139 144 153 162 159 135 119 104 103 95 90 62 3 87 237
84 94 321 111 112 71 139 137 137 138 122 138 132 152 160 159 140 134 134 134 135 130 131 132 140 143 144 139 139 130 135 136 139 145 149 163 178 186 174 152 146 139 107 115 179 199 244 261 262
9 53 304 140 110 135 130 124 143 124 136 156 221 142 153 148 138 131 134 132 131 138 145 141 134 148 157 150 145 140 146 149 154 150 157 176 200 207 193 189 206 204 177 262 252 250 238 234 220
348 85 249 174 131 136 131 137 129 134 148 121 120 128 146 142 144 146 150 155 160 157 160 152 152 159 158 163 149 155 162 167 164 170 175 189 217 234 231 229 233 203 265 259 267 258 253 249 246
231 214 284 122 140 149 144 139 140 142 148 152 147 148 150 153 156 159 162 166 170 164 162 166 160 166 167 165 168 173 176 177 184 181 191 215 250 267 265 275 274 299 252 262 251 257 251 237 223
258 237 267 61 91 135 153 122 155 152 166 157 149 152 150 164 163 162 168 166 163 167 170 171 169 172 188 162 173 179 189 194 213 212 201 210 241 249 246 262 296 305 305 274 205 219 247 244 218
236 165 73 67 73 67 84 127 134 133 145 156 153 150 164 168 167 181 170 166 165 167 167 179 179 185 182 159 169 185 202 214 213 202 197 182 196 236 240 255 279 298 308 209 155 170 205 259 269
178 82 85 43 84 83 92 118 111 140 149 153 158 155 172 173 179 168 165 170 170 171 171 179 187 189 161 177 188 195 193 212 213 210 174 174 213 226 208 228 256 297 303 344 10 349 329 316 347
97 64 35 250 352 95 101 79 141 148 150 156 153 170 173 177 175 175 174 167 173 173 174 176 177 182 172 182 194 188 195 196 198 210 198 154 179 201 160 327 308 283 320 23 352 320 309 312 303
62 75 93 249 124 342 93 165 156 155 153 163 170 183 187 197 176 170 166 161 167 165 170 177 179 175 168 167 174 169 178 188 195 200 195 181 177 196 227 1 297 296 9 353 322 323 26 35 32
325 152 215 175 193 146 115 147 172 169 163 168 182 190 193 184 174 163 152 156 160 164 167 172 157 167 166 163 162 157 174 177 207 201 197 195 205 218 195 277 298 299 333 326 342 304 115 233 275
208 206 189 208 184 189 172 210 171 180 176 177 184 193 196 174 181 159 149 155 157 163 170 164 161 169 168 161 170 147 154 197 189 205 203 202 205 209 206 253 287 320 288 359 356 295 283 315 313
179 231 183 209 192 148 200 196 180 181 187 183 189 191 187 178 183 157 149 154 156 164 163 169 166 176 158 145 162 165 208 160 193 210 219 209 211 205 203 242 276 320 277 218 277 272 16 327 10
32 93 188 156 151 165 192 217 191 181 194 189 186 188 183 168 164 168 155 152 167 169 174 167 180 169 174 164 166 155 189 230 173 213 218 220 218 217 203 219 242 219 278 293 283 282 335 292 351
28 61 4 169 160 252 55 320 182 201 196 193 191 183 181 170 168 172 164 161 164 172 170 170 172 173 173 176 127 64 23 328 313 193 223 216 220 223 201 209 221 221 229 253 243 254 183 271 310
50 291 83 52 70 213 96 262 209 199 197 189 167 137 158 172 169 151 148 157 169 178 177 169 171 172 175 172 170 178 187 228 238 219 215 210 220 227 218 209 211 220 217 241 250 232 207 176 262
181 286 322 139 88 340 161 73 272 186 187 137 126 112 97 86 81 100 154 151 191 178 179 174 172 176 180 183 184 192 207 231 250 227 224 222 218 222 224 215 211 206 216 229 241 249 208 209 204
152 44 29 40 76 7 260 134 290 183 151 120 117 120 107 83 72 5 310 340 166 181 180 175 175 185 186 190 191 195 196 213 235 247 220 212 226 229 226 221 212 215 210 217 222 237 229 217 237
61 49 358 18 9 226 51 58 265 118 124 132 125 126 125 145 192 171 225 131 70 110 99 160 184 205 210 206 210 216 215 216 222 227 223 211 215 223 232 216 221 219 220 220 217 222 229 226 210
91 132 142 176 216 269 359 15 344 68 105 105 101 127 146 178 198 206 222 175 120 96 85 65 59 221 220 224 235 232 228 227 232 231 224 208 220 220 219 220 221 222 218 221 213 210 224 229 232
314 39 186 124 352 68 8 16 34 46 60 73 94 110 126 148 162 177 205 153 136 105 95 24 112 338 274 234 238 238 240 241 237 235 229 224 208 219 224 221 220 224 221 219 221 222 221 216 224
112 200 37 11 52 73 321 55 126 46 93 94 93 95 85 86 82 74 87 85 91 89 96 299 75 36 10 27 6 288 249 237 240 243 239 232 228 213 216 218 223 226 226 223 219 230 231 222 231
12 17 52 110 95 137 100 353 336 269 207 113 104 105 112 112 112 102 94 89 86 112 181 202 67 28 6 340 296 315 265 233 231 237 239 238 231 215 215 216 219 223 223 223 221 228 231 225 235
112 118 109 107 307 45 102 332 359 71 56 69 62 64 60 55 45 94 121 130 135 141 98 58 38 11 321 302 305 319 337 250 236 234 236 235 235 232 218 213 216 218 219 220 219 222 226 225 232